{"data":{"norad_id":68351,"epoch":"2026-09-18T20:53:37.032000Z","epoch_age_seconds":213031,"freshness":"STALE","line1":"1 68351U 26060B   26261.87056750 -.00000104  00000+0  23537-4 0  9991","line2":"2 68351  54.9830  32.8107 0008915 276.4338  83.5622 14.22254437 26290","mean_motion":14.22254437,"eccentricity":0.0008915,"inclination_deg":54.983,"raan_deg":32.8107,"arg_perigee_deg":276.4338,"mean_anomaly_deg":83.5622,"bstar":2.3537e-5,"rev_number":2629,"period_min":101.24770663661,"perigee_km":811.32341603858,"apogee_km":824.15366212476,"semimajor_km":7195.8755390817,"source":"CELESTRAK","updated_at":"2026-09-20T09:00:24.158345Z"}}